TimePDT,TemperatureF,Dew PointF,Humidity,Sea Level PressureIn,VisibilityMPH,Wind Direction,Wind SpeedMPH,Gust SpeedMPH,PrecipitationIn,Events,Conditions,WindDirDegrees,DateUTC
12:15 AM,64.4,44.6,49,29.95,10.0,NW,10.4,-,N/A,,Unknown,320,2013-05-16 07:15:00
12:35 AM,64.4,44.6,49,29.95,10.0,NW,9.2,-,N/A,,Unknown,310,2013-05-16 07:35:00
12:55 AM,62.6,44.6,52,29.95,10.0,NW,10.4,-,N/A,,Unknown,320,2013-05-16 07:55:00
1:15 AM,62.6,44.6,52,29.95,10.0,NW,10.4,-,N/A,,Unknown,320,2013-05-16 08:15:00
1:35 AM,62.6,44.6,52,29.95,10.0,NW,9.2,-,N/A,,Unknown,320,2013-05-16 08:35:00
1:55 AM,62.6,42.8,48,29.95,10.0,NNW,6.9,-,N/A,,Unknown,330,2013-05-16 08:55:00
2:15 AM,62.6,44.6,52,29.95,10.0,NNW,5.8,-,N/A,,Unknown,330,2013-05-16 09:15:00
2:35 AM,60.8,44.6,55,29.95,10.0,NNW,5.8,-,N/A,,Unknown,330,2013-05-16 09:35:00
2:55 AM,60.8,44.6,55,29.95,10.0,Calm,Calm,-,N/A,,Unknown,0,2013-05-16 09:55:00
3:15 AM,59.0,44.6,59,29.95,10.0,NW,4.6,-,N/A,,Unknown,310,2013-05-16 10:15:00
3:35 AM,57.2,42.8,59,29.95,10.0,Calm,Calm,-,N/A,,Unknown,0,2013-05-16 10:35:00
3:55 AM,57.2,42.8,59,29.95,10.0,Calm,Calm,-,N/A,,Unknown,0,2013-05-16 10:55:00
4:15 AM,55.4,42.8,63,29.96,10.0,Calm,Calm,-,N/A,,Unknown,0,2013-05-16 11:15:00
4:35 AM,55.4,44.6,67,29.96,10.0,Calm,Calm,-,N/A,,Unknown,0,2013-05-16 11:35:00
4:55 AM,55.4,44.6,67,29.97,10.0,SW,3.5,-,N/A,,Unknown,230,2013-05-16 11:55:00
5:15 AM,55.4,44.6,67,29.97,10.0,WSW,3.5,-,N/A,,Unknown,250,2013-05-16 12:15:00
5:35 AM,53.6,44.6,72,29.97,10.0,Calm,Calm,-,N/A,,Unknown,0,2013-05-16 12:35:00
5:55 AM,53.6,42.8,67,29.97,10.0,Calm,Calm,-,N/A,,Unknown,0,2013-05-16 12:55:00
6:15 AM,53.6,42.8,67,29.98,10.0,ESE,3.5,-,N/A,,Unknown,120,2013-05-16 13:15:00
6:35 AM,53.6,44.6,72,29.98,10.0,Calm,Calm,-,N/A,,Unknown,0,2013-05-16 13:35:00
6:55 AM,57.2,44.6,63,29.99,10.0,Calm,Calm,-,N/A,,Unknown,0,2013-05-16 13:55:00
7:15 AM,57.2,46.4,67,29.99,10.0,Calm,Calm,-,N/A,,Unknown,0,2013-05-16 14:15:00
7:35 AM,59.0,46.4,63,29.99,10.0,West,3.5,-,N/A,,Unknown,270,2013-05-16 14:35:00
7:55 AM,60.8,46.4,59,30.00,10.0,WNW,5.8,-,N/A,,Unknown,290,2013-05-16 14:55:00
8:15 AM,62.6,46.4,55,30.00,10.0,West,3.5,-,N/A,,Unknown,270,2013-05-16 15:15:00
8:35 AM,64.4,46.4,52,30.00,10.0,WNW,5.8,-,N/A,,Unknown,290,2013-05-16 15:35:00
8:55 AM,64.4,46.4,52,30.01,10.0,NNW,5.8,-,N/A,,Unknown,340,2013-05-16 15:55:00
9:15 AM,66.2,46.4,49,30.01,10.0,NNW,5.8,-,N/A,,Unknown,330,2013-05-16 16:15:00
9:35 AM,66.2,48.2,52,30.01,10.0,North,4.6,-,N/A,,Unknown,350,2013-05-16 16:35:00
9:55 AM,68.0,48.2,49,30.02,10.0,NNW,9.2,-,N/A,,Unknown,330,2013-05-16 16:55:00
10:15 AM,69.8,46.4,43,30.02,10.0,NNW,12.7,-,N/A,,Unknown,340,2013-05-16 17:15:00
10:35 AM,69.8,48.2,46,30.02,10.0,NW,10.4,17.3,N/A,,Unknown,310,2013-05-16 17:35:00
10:55 AM,71.6,48.2,43,30.01,10.0,NNW,8.1,-,N/A,,Unknown,340,2013-05-16 17:55:00
11:15 AM,71.6,46.4,41,30.02,10.0,NW,15.0,20.7,N/A,,Unknown,310,2013-05-16 18:15:00
11:35 AM,71.6,48.2,43,30.01,10.0,WNW,15.0,19.6,N/A,,Unknown,300,2013-05-16 18:35:00
12:15 PM,71.6,46.4,41,30.00,10.0,NNW,11.5,-,N/A,,Unknown,330,2013-05-16 19:15:00
12:35 PM,71.6,46.4,41,30.00,9.0,NNW,13.8,19.6,N/A,,Unknown,330,2013-05-16 19:35:00
12:55 PM,71.6,46.4,41,30.00,5.0,NW,17.3,21.9,N/A,,Unknown,320,2013-05-16 19:55:00
1:15 PM,71.6,46.4,41,29.99,4.0,NNW,17.3,-,N/A,,Unknown,330,2013-05-16 20:15:00
1:35 PM,75.2,46.4,36,29.99,5.0,NNW,18.4,23.0,N/A,,Unknown,330,2013-05-16 20:35:00
1:55 PM,73.4,48.2,41,29.98,9.0,NW,15.0,18.4,N/A,,Unknown,320,2013-05-16 20:55:00
2:15 PM,73.4,48.2,41,29.98,9.0,NW,15.0,19.6,N/A,,Unknown,320,2013-05-16 21:15:00
2:35 PM,73.4,48.2,41,29.97,10.0,NNW,13.8,19.6,N/A,,Unknown,330,2013-05-16 21:35:00
3:15 PM,73.4,48.2,41,29.97,10.0,North,12.7,-,N/A,,Unknown,350,2013-05-16 22:15:00
3:35 PM,71.6,48.2,43,29.97,10.0,NNW,11.5,-,N/A,,Unknown,330,2013-05-16 22:35:00
3:55 PM,73.4,48.2,41,29.96,10.0,North,12.7,-,N/A,,Unknown,350,2013-05-16 22:55:00
4:15 PM,71.6,48.2,43,29.95,10.0,NNW,11.5,17.3,N/A,,Unknown,340,2013-05-16 23:15:00
4:35 PM,71.6,48.2,43,29.94,10.0,North,10.4,-,N/A,,Unknown,350,2013-05-16 23:35:00
4:55 PM,71.6,48.2,43,29.94,10.0,North,11.5,-,N/A,,Unknown,10,2013-05-16 23:55:00
5:15 PM,73.4,48.2,41,29.93,10.0,North,11.5,-,N/A,,Unknown,360,2013-05-17 00:15:00
5:35 PM,73.4,48.2,41,29.93,10.0,North,9.2,-,N/A,,Unknown,350,2013-05-17 00:35:00
5:55 PM,73.4,50.0,44,29.92,10.0,NNW,8.1,-,N/A,,Unknown,340,2013-05-17 00:55:00
6:15 PM,73.4,48.2,41,29.92,10.0,NNW,8.1,-,N/A,,Unknown,340,2013-05-17 01:15:00
6:35 PM,73.4,48.2,41,29.92,10.0,NNW,11.5,-,N/A,,Unknown,340,2013-05-17 01:35:00
6:55 PM,73.4,48.2,41,29.92,10.0,NNW,10.4,-,N/A,,Unknown,330,2013-05-17 01:55:00
7:15 PM,71.6,48.2,43,29.92,10.0,NW,9.2,-,N/A,,Unknown,310,2013-05-17 02:15:00
7:35 PM,71.6,48.2,43,29.92,10.0,NW,10.4,-,N/A,,Unknown,310,2013-05-17 02:35:00
7:55 PM,71.6,48.2,43,29.93,10.0,NW,8.1,-,N/A,,Unknown,320,2013-05-17 02:55:00
8:15 PM,69.8,48.2,46,29.93,10.0,NW,6.9,-,N/A,,Unknown,320,2013-05-17 03:15:00
8:35 PM,69.8,48.2,46,29.93,10.0,NW,5.8,-,N/A,,Unknown,320,2013-05-17 03:35:00
8:55 PM,69.8,48.2,46,29.94,10.0,NNW,3.5,-,N/A,,Unknown,340,2013-05-17 03:55:00
9:15 PM,69.8,48.2,46,29.94,10.0,NW,5.8,-,N/A,,Unknown,320,2013-05-17 04:15:00
9:35 PM,69.8,46.4,43,29.94,10.0,NNW,6.9,-,N/A,,Unknown,340,2013-05-17 04:35:00
9:55 PM,69.8,46.4,43,29.94,10.0,NNW,8.1,-,N/A,,Unknown,340,2013-05-17 04:55:00
10:15 PM,69.8,44.6,40,29.95,10.0,NNW,6.9,-,N/A,,Unknown,330,2013-05-17 05:15:00
10:35 PM,69.8,44.6,40,29.95,10.0,NNW,8.1,-,N/A,,Unknown,330,2013-05-17 05:35:00
10:55 PM,69.8,44.6,40,29.95,10.0,NW,6.9,-,N/A,,Unknown,310,2013-05-17 05:55:00
11:15 PM,66.2,46.4,49,29.95,10.0,WNW,6.9,-,N/A,,Unknown,300,2013-05-17 06:15:00
11:35 PM,66.2,46.4,49,29.94,10.0,WNW,9.2,-,N/A,,Unknown,300,2013-05-17 06:35:00
11:55 PM,64.4,46.4,52,29.95,10.0,NW,10.4,-,N/A,,Unknown,310,2013-05-17 06:55:00